BEIDOU 5

Last updated on Aug. 13, 2020, 5:30 a.m. UTC

1 36828U 10036A   20225.28226262 -.00000084  00000-0  10000-3 0  9995
2 36828  54.1687 182.4719 0101387 235.3603 121.0531  1.00299892 36804
UTC
Height (km)
Latitude
Longitude
Inclination
Orbital Period
UTC large
Height (km)
Speed (km/s)
/
Latitude / Longitude
Inclination (degrees)
Orbital Period (minutes)
Azimuth
Elevation
Range (km)
Doppler Factor
iOS Compass Heading
iOS Angle

Next 30 passes for location: Hong Kong

Rise time Rise Azimuth (degrees) Set time Set Azimuth (degrees) Duration Max altitude (degrees)

No matching passes for this satellites